Weather in Petrolina

Brazil     9°23′46″S   40°31′10″W
В апреле 2022 года жителям России запретили посещать сайт meteo.paraplan.net по решению Генеральной прокуратуры. Аудитория сайта уменьшилась в 10 раз. Владельцы сайта не видят смысла в поддержке погодного сервера в таких условиях. Сайт будет закрыт в октябре.
temp.,
°C
wind,
m/s
gust,
m/s
humid.,
%
clouds,
%
prec.,
mm/h
press.,
hPa
HPBL,
m
4 october, tue
tue400:00+25ese813340 0.0 1013464
03:00+22ese712540 0.0 1012345
06:00+20ese510630 0.0 1015425
09:00+28ese67335 0.0 10161083
12:00+33ese54190 0.0 10131928
15:00+35ese44145 0.0 10092749
18:00+32e34165 0.0 100937
21:00+30ese46170 0.0 101174
5 october, wed
wed500:00+26ese712465 0.0 1011413
03:00+23ese710660 0.0 1012501
06:00+22ese610710 0.0 1014529
09:00+28e78425 0.0 10151122
12:00+33ese7726100 0.0 10121967
15:00+36ese6618100 0.0 10092941
18:00+33e5821100 0.0 1009208
21:00+31ese9142796 0.0 1012750
6 october, thu
thu600:00+26se9145536 0.0 1012427
03:00+23e712655 0.0 1012714
06:00+22ese713705 0.0 1014689
09:00+29e9104098 0.0 10151269
12:00+34e882290 0.0 10122252
15:00+36e781699 0.0 10082950
18:00+33e471958 0.0 1009104
21:00+30e511265 0.0 1011240
7 october, fri
fri700:00+25ese914635 0.0 1012668
03:00+23ese7127561 0.0 1011594
06:00+22ese811775 0.0 1014566
09:00+29e78440 0.0 10151268
12:00+35e66260 0.0 10112163
15:00+37e55180 0.0 10072915
18:00+34ene46190 0.0 100873
21:00+31ne34225 0.0 101038
8 october, sat
sat800:00+26e8126379 0.0 1010508
03:00+23ese711772 0.0 1010494
06:00+23ese710770 0.0 1012561
09:00+29ese88460 0.0 10131194
12:00+35e77255 0.0 10092187
15:00+37ese67205 0.0 10062992
18:00+34e572362 0.0 1007145
21:00+31ese1113310 0.0 10101081